Inquirer Daily News

Weather

Get conditions and forecasts for any City, State, ZIP code or Country:  
Northeast Philadelphia, PA
on Wednesday, February 6, 2013

Wednesday
Previous Day Next Day
Daily Summary
 ActualAverage (KTTN)Record (KTTN)
Temperature
Mean Temperature °F 32°F  
Max Temperature 39°F 40°F 64°F (1938)
Min Temperature 26°F 25°F -4°F (1895)
Degree Days
Heating Degree Days 32 33  
Month to date heating degree days 198  
Since 1 July heating degree days 3144  
Cooling Degree Days 0 0  
Month to date cooling degree days 0  
Year to date cooling degree days 0  
Moisture
Dew Point 24°F   
Average Humidity 77    
Maximum Humidity 100    
Minimum Humidity 45    
Precipitation
Precipitation 0.00 in 0.07 in 1.79 in (1896)
Month to date precipitation 0.42  
Year to date precipitation 3.58  
Snow
Snow 0.00 in in in ()
Month to date snowfall  
Since 1 July snowfall  
Snow Depth in   
Wind
Wind Speed 4 mph   
Max Wind Speed 14 mph   
Max Gust Speed 25 mph   
Visibility 5 miles   
Events Fog , Snow   

Key: T is trace of precipitation, MM is missing value
Source: NWS Daily Summary
Time(EST)TemperatureDew PointHumidity Pressure Visibility Wind DirectionWind SpeedGust SpeedPrecipitationEvents Conditions
12:54 AM 32.0°F 30.0°F 92% 29.96 in 3.0 miles NNW 5.8 mph - N/A   Overcast
1:14 AM 32.0°F 30.2°F 93% 29.95 in 2.0 miles NW 3.5 mph - 0.00 in Snow Light Snow
1:26 AM 32.0°F 30.2°F 93% 29.95 in 2.0 miles NW 4.6 mph - 0.00 in Snow Light Snow
1:34 AM 32.0°F 30.2°F 93% 29.96 in 3.0 miles NW 4.6 mph - 0.00 in   Overcast
1:50 AM 30.2°F 28.4°F 93% 29.95 in 3.0 miles Calm Calm - 0.00 in   Mostly Cloudy
1:54 AM 30.2°F 28.4°F 93% 29.95 in 3.0 miles Calm Calm - N/A   Mostly Cloudy
2:20 AM 30.2°F 28.4°F 93% 29.95 in 2.5 miles Calm Calm - N/A   Clear
2:40 AM 30.2°F 26.6°F 86% 29.96 in 1.8 miles Calm Calm - N/A   Scattered Clouds
2:49 AM 28.4°F 28.4°F 100% 29.96 in 1.8 miles Calm Calm - N/A   Mostly Cloudy
2:54 AM 30.0°F 28.0°F 92% 29.96 in 1.8 miles Calm Calm - N/A   Scattered Clouds
3:01 AM 28.4°F 26.6°F 93% 29.95 in 2.0 miles Calm Calm - N/A   Scattered Clouds
3:12 AM 28.4°F 26.6°F 93% 29.96 in 1.0 miles Calm Calm - N/A   Mist
3:19 AM 26.6°F 24.8°F 93% 29.95 in 0.5 miles Calm Calm - N/A Fog Light Freezing Fog
3:30 AM 26.6°F 24.8°F 93% 29.96 in 1.0 miles Calm Calm - N/A   Mist
3:43 AM 26.6°F 23.0°F 86% 29.97 in 0.5 miles Calm Calm - N/A Fog Light Freezing Fog
3:54 AM 27.0°F 25.0°F 92% 29.98 in 0.8 miles WNW 4.6 mph - N/A   Mist
4:00 AM 28.4°F 26.6°F 93% 29.98 in 1.5 miles WNW 4.6 mph - N/A   Partly Cloudy
4:03 AM 28.4°F 26.6°F 93% 29.97 in 3.0 miles WNW 3.5 mph - N/A   Partly Cloudy
4:54 AM 27.0°F 25.0°F 92% 30.01 in 3.0 miles WSW 5.8 mph - N/A   Partly Cloudy
5:54 AM 27.0°F 25.0°F 92% 30.04 in 3.0 miles West 5.8 mph - N/A   Clear
6:54 AM 28.9°F 26.1°F 89% 30.07 in 6.0 miles West 6.9 mph - N/A   Mostly Cloudy
7:54 AM 30.9°F 27.0°F 85% 30.12 in 4.0 miles WNW 6.9 mph - N/A   Mostly Cloudy
8:54 AM 33.1°F 26.1°F 75% 30.13 in 5.0 miles WNW 8.1 mph - N/A   Haze
9:54 AM 35.1°F 24.1°F 64% 30.16 in 9.0 miles WNW 8.1 mph - N/A   Overcast
10:54 AM 36.0°F 24.1°F 62% 30.17 in 10.0 miles WNW 12.7 mph 19.6 mph N/A   Overcast
11:54 AM 37.0°F 23.0°F 57% 30.17 in 10.0 miles West 13.8 mph - N/A   Mostly Cloudy
12:54 PM 37.0°F 21.0°F 52% 30.17 in 10.0 miles NW 11.5 mph 18.4 mph N/A   Overcast
1:54 PM 37.9°F 19.9°F 48% 30.17 in 10.0 miles NW 11.5 mph 25.3 mph N/A   Overcast
2:54 PM 39.9°F 19.9°F 45% 30.18 in 10.0 miles WNW 13.8 mph 21.9 mph N/A   Overcast
3:54 PM 37.9°F 19.0°F 47% 30.21 in 10.0 miles WNW 12.7 mph 23.0 mph N/A   Scattered Clouds
4:54 PM 37.0°F 19.0°F 48% 30.23 in 10.0 miles NW 12.7 mph 20.7 mph N/A   Scattered Clouds
5:54 PM 35.1°F 19.0°F 52% 30.27 in 10.0 miles West 6.9 mph - N/A   Clear
6:54 PM 34.0°F 19.0°F 54% 30.29 in 10.0 miles WNW 5.8 mph - N/A   Clear
7:54 PM 33.1°F 19.0°F 56% 30.31 in 10.0 miles NW 5.8 mph - N/A   Clear
8:54 PM 30.9°F 19.0°F 61% 30.32 in 10.0 miles NW 4.6 mph - N/A   Clear
9:54 PM 30.0°F 16.0°F 56% 30.36 in 10.0 miles North 4.6 mph - N/A   Clear
10:54 PM 27.0°F 15.1°F 61% 30.37 in 10.0 miles North 4.6 mph - N/A   Clear
11:54 PM 28.0°F 14.0°F 56% 30.38 in 10.0 miles Calm Calm - N/A   Clear
Astronomy
Sunrise:07:03 AM (EST) Moon Rise:03:44 AM (EST)2/6
Sunset:05:25 PM (EST) Moon Set:01:41 PM (EST)2/6
Moon Phase
Feb. 06 Feb. 10 Feb. 17 Feb. 25 Mar. 04

Copyright © 2014 The Weather Underground, Inc.